Sandy Bay Weather Center
Weather Center


NOAA NWS Hourly Roundups by Site

NOAA NWS Hourly Roundups by Site

Regional Weather Roundup for Boston, MA

To Select Another Site Choose from List
Select Site:  

000
ASUS41 KBOX 111810
RWRBOX

REGIONAL WEATHER ROUNDUP
NATIONAL WEATHER SERVICE BOSTON/NORTON MA
200 PM EDT THU AUG 11 2022

NOTE:  "FAIR" INDICATES FEW OR NO CLOUDS BELOW 12,000 FEET WITH NO
SIGNIFICANT WEATHER AND/OR OBSTRUCTIONS TO VISIBILITY.

MAZALL-111900-
EASTERN MASSACHUSETTS

CITY           SKY/WX    TMP DP  RH WIND       PRES   REMARKS
BOSTON         CLOUDY    76  67  73 SE10      29.88F
6HR MIN TEMP:  68; 6HR MAX TEMP:  76; 6HR PCP: TRACE;

BEVERLY        PTSUNNY   77  66  68 SE9       29.87F
LAWRENCE       PTSUNNY   80  62  54 SW6       29.88F
BEDFORD        PTSUNNY   80  60  50 VRB6      29.86F
BLUE HILL      NOT AVBL
NORWOOD        PTSUNNY   82  66  58 SE7       29.86F
MARSHFIELD     CLOUDY    72  70  94 SE5       29.88F
PLYMOUTH       CLOUDY    72  70  93 VRB3      29.89F
TAUNTON        CLOUDY    73  69  87 SE6       29.88F
NEW BEDFORD    CLOUDY    72  70  93 SE5       29.88F
$$

MAZALL-111900-
CAPE COD AND THE ISLANDS

CITY           SKY/WX    TMP DP  RH WIND       PRES   REMARKS
FALMOUTH       LGT RAIN  70  70 100 SE8       29.90F
HYANNIS        RAIN      71  68  90 SE5       29.88F FOG
CHATHAM        RAIN      68  66  93 SE3       29.91F FOG
NANTUCKET      LGT RAIN  70  69  97 E5        29.89F FOG
MARTHAS VNYRD  RAIN      70  69  97 E8        29.88F FOG
$$

MAZALL-111900-
CENTRAL AND WESTERN MASSACHUSETTS

CITY           SKY/WX    TMP DP  RH WIND       PRES   REMARKS
WORCESTER      PTSUNNY   78  55  44 W6        29.90F
6HR MIN TEMP:  66; 6HR MAX TEMP:  78;

FITCHBURG      NOT AVBL
ORANGE         PTSUNNY   81  57  43 NW9       29.89F
SPRINGFIELD    PTSUNNY   81  56  41 N5        29.84F
WESTFIELD      MOSUNNY   84  56  38 W7        29.87F
NORTH ADAMS    MOSUNNY   79  59  50 N6        29.90F
PITTSFIELD     PTSUNNY   78  56  46 VRB5      29.91F
$$

RIZALL-111900-
RHODE ISLAND

CITY           SKY/WX    TMP DP  RH WIND       PRES   REMARKS
PROVIDENCE     PTSUNNY   76  70  82 S9        29.88F
6HR MIN TEMP:  72; 6HR MAX TEMP:  76; 6HR PCP:  0.14;

NEWPORT        CLOUDY    70  70 100 SE7       29.88F
BLOCK ISLAND   CLOUDY    74  70  87 VRB5      29.89F
SMITHFIELD     PTSUNNY   77  68  73 S3        29.89F
WESTERLY       PTSUNNY   75  70  84 S7        29.88S
$$

CTZALL-111900-
CONNECTICUT

CITY           SKY/WX    TMP DP  RH WIND       PRES   REMARKS
BRADLEY INTL   PTSUNNY   82  58  43 VRB3      29.87F
6HR MIN TEMP:  68; 6HR MAX TEMP:  83;

HARTFORD       MOSUNNY   83  58  42 S6        29.86F
BRIDGEPORT     MOSUNNY   79  71  76 S10       29.87F
DANBURY        SUNNY     85  58  39 N9        29.90F
GROTON         PTSUNNY   77  71  82 S8        29.88F
NEW HAVEN      PTSUNNY   82  72  71 S10       29.88F
CHESTER        PTSUNNY   81  68  65 CALM      29.89F
MERIDEN        MOSUNNY   83  58  42 W8        29.87F
WILLIMANTIC    PTSUNNY   80  60  50 VRB3      29.88F
OXFORD         MOSUNNY   79  58  48 CALM      29.91F
$$

MEZ002-015-021-024-NHZ003-005-008-011-012-014-VTZ005-008-111900-
NORTHERN NEW ENGLAND

CITY           SKY/WX    TMP DP  RH WIND       PRES   REMARKS
PORTLAND ME    PTSUNNY   73  64  73 S13       29.89F
6HR MIN TEMP:  65; 6HR MAX TEMP:  76;

BANGOR ME      PTSUNNY   75  60  59 S10       29.88F
CONCORD NH     CLOUDY    79  60  52 VRB5      29.87F
MANCHESTER NH  PTSUNNY   82  58  43 CALM      29.85F
NASHUA NH      PTSUNNY   82  58  43 VRB6      29.86F
PORTSMOUTH NH  PTSUNNY   75  64  68 SE6       29.87F
JAFFREY NH     PTSUNNY   79  55  43 W7        29.91F
KEENE NH       MOSUNNY   78  56  46 W6          N/A
BURLINGTON VT  PTSUNNY   80  59  48 S6        29.85F
MT. WASHINGTON NOT AVBL
$$

NYZ052-076-111900-
EASTERN NEW YORK

CITY           SKY/WX    TMP DP  RH WIND       PRES   REMARKS
ALBANY         MOSUNNY   83  59  44 NW9       29.88F
6HR MIN TEMP:  67; 6HR MAX TEMP:  83;

NEW YORK CITY  MOSUNNY   85  59  41 E6        29.87F
6HR MIN TEMP:  74; 6HR MAX TEMP:  85; 6HR PCP:  0.02;

$$

ANZALL-111900-
MARINE OBSERVATIONS

STATION/POSITION TIME  TEMP    WIND        PRES    VSBY  WAVE
                       AIR SEA DIR/SP/G                  HT/PER
                 (UTC) (F)     (DEG/KT/KT) (MB)    (MI)  (FT/S)
BOSTON BUOY      NOT AVBL
BUZZARDS BAY     NOT AVBL
NANTUCKET SOUND  NOT AVBL
MASS BAY-STELLWA NOT AVBL
ISLE OF SHOALS   NOT AVBL
S OF BLOCK IS    NOT AVBL
$$

......................KEY.........................
  SKY/WX - SKY CONDITION/PRESENT WEATHER
  TMP    - TEMPERATURE IN FAHRENHEIT
  DWPT   - DEWPOINT IN FAHRENHEIT
  RH     - RELATIVE HUMIDITY IN PERCENT
  WIND   - DIRECTION AND SPEED IN MPH
  PRES   - MEAN SEA LEVEL PRESSURE IN INCHES OF HG
  WCI    - WIND CHILL INDEX
  VSB    - VISIBILITY IN MILES
  HX     - HEAT INDEX
  TC     - TEMPERATURE IN CELSIUS
  VRB    - VARIABLE WIND DIRECTION
  N/A    - NOT AVAILABLE


 

View Past Reports for Boston, MA.

Products Courtesy of NOAA-NWS
NWS Information Parsing Script by Ken True at Saratoga Weather - Script by SE Lincoln Weather.

 



Copyright © Sandybay.net   ::   All rights reserved.